Hourly Weather Otverzhichi

Today, 1 December, Tuesday

Time Temperature Precipitation Wind Pressure Humidity
00:00 -5°C° 0 mm 2 mps 758 mmHg 94%
01:00 -3°C° 0 mm 1 mps 758 mmHg 94%
02:00 -5°C° 0 mm 2 mps 757 mmHg 92%
03:00 -3°C° 0 mm 1 mps 757 mmHg 91%
04:00 -3°C° 0 mm 1 mps 757 mmHg 90%
05:00 -3°C° 0 mm 1 mps 757 mmHg 89%
06:00 -3°C° 0 mm 1 mps 758 mmHg 88%
07:00 -3°C° 0 mm 1 mps 758 mmHg 87%
08:00 -3°C° 0 mm 1 mps 758 mmHg 85%
09:00 -2°C° 0 mm 1 mps 758 mmHg 81%
10:00 -3°C° 0 mm 2 mps 759 mmHg 78%
11:00 -3°C° 0 mm 2 mps 759 mmHg 74%
12:00 0°C° 0 mm 1 mps 759 mmHg 73%
13:00 0°C° 0 mm 1 mps 759 mmHg 73%
14:00 +1°C° 0 mm 1 mps 758 mmHg 72%
15:00 0°C° 0 mm 1 mps 759 mmHg 75%
16:00 -1°C° 0 mm 1 mps 759 mmHg 78%
17:00 -2°C° 0 mm 1 mps 759 mmHg 81%
18:00 -4°C° 0 mm 2 mps 759 mmHg 83%
19:00 -4°C° 0 mm 2 mps 759 mmHg 84%
20:00 -4°C° 0 mm 2 mps 759 mmHg 85%
21:00 -4°C° 0 mm 2 mps 759 mmHg 85%
22:00 -5°C° 0 mm 2 mps 759 mmHg 85%
23:00 -5°C° 0 mm 2 mps 759 mmHg 86%

Tomorrow, 2 December, Wednesday

Time Temperature Precipitation Wind Pressure Humidity
00:00 -5°C° 0 mm 2 mps 759 mmHg 87%
01:00 -5°C° 0 mm 2 mps 759 mmHg 87%
02:00 -5°C° 0 mm 2 mps 759 mmHg 88%
03:00 -5°C° 0 mm 2 mps 759 mmHg 89%
04:00 -5°C° 0 mm 2 mps 759 mmHg 90%
05:00 -5°C° 0 mm 2 mps 758 mmHg 91%
06:00 -5°C° 0 mm 2 mps 758 mmHg 92%
07:00 -5°C° 0 mm 2 mps 758 mmHg 94%
08:00 -5°C° 0 mm 2 mps 758 mmHg 95%
09:00 -4°C° 0 mm 2 mps 758 mmHg 93%
10:00 -3°C° 0 mm 2 mps 758 mmHg 91%
11:00 -2°C° 0 mm 2 mps 758 mmHg 90%
12:00 -2°C° 0 mm 2 mps 758 mmHg 90%
13:00 -2°C° 0 mm 2 mps 757 mmHg 89%
14:00 -2°C° 0 mm 2 mps 757 mmHg 89%
15:00 -2°C° 0 mm 2 mps 757 mmHg 91%
16:00 -2°C° 0 mm 2 mps 756 mmHg 93%
17:00 0°C° 0 mm 1 mps 756 mmHg 95%
18:00 -2°C° 0 mm 2 mps 756 mmHg 95%
19:00 -2°C° 0 mm 2 mps 756 mmHg 95%
20:00 -2°C° 0 mm 2 mps 756 mmHg 94%
21:00 -2°C° 0 mm 2 mps 756 mmHg 93%
22:00 -2°C° 0 mm 2 mps 756 mmHg 92%
23:00 -2°C° 0 mm 2 mps 756 mmHg 91%

Day after tomorrow, 3 December, Thursday

Time Temperature Precipitation Wind Pressure Humidity
00:00 -2°C° 0 mm 2 mps 755 mmHg 92%
01:00 -2°C° 0 mm 2 mps 755 mmHg 92%
02:00 -2°C° 0 mm 2 mps 755 mmHg 93%
03:00 -2°C° 0 mm 2 mps 755 mmHg 94%
04:00 -2°C° 0 mm 2 mps 755 mmHg 95%
05:00 -4°C° 0 mm 3 mps 754 mmHg 96%
06:00 -4°C° 0 mm 3 mps 754 mmHg 96%
07:00 -3°C° 0 mm 2 mps 754 mmHg 96%
08:00 -3°C° 0 mm 2 mps 754 mmHg 96%
09:00 -2°C° 0 mm 3 mps 754 mmHg 94%
10:00 -1°C° 0 mm 3 mps 754 mmHg 93%
11:00 0°C° 0 mm 3 mps 754 mmHg 91%
12:00 -1°C° 0 mm 4 mps 754 mmHg 89%
13:00 -1°C° 0 mm 4 mps 753 mmHg 88%
14:00 0°C° 0 mm 4 mps 753 mmHg 86%
15:00 -1°C° 0 mm 4 mps 753 mmHg 87%
16:00 -1°C° 0 mm 4 mps 752 mmHg 88%
17:00 -2°C° 0 mm 4 mps 752 mmHg 89%
18:00 -2°C° 0 mm 4 mps 752 mmHg 90%
19:00 -2°C° 0 mm 4 mps 752 mmHg 90%
20:00 -3°C° 0 mm 4 mps 752 mmHg 91%
21:00 -2°C° 0 mm 4 mps 752 mmHg 89%
22:00 -2°C° 0 mm 5 mps 752 mmHg 87%
23:00 -2°C° 0 mm 5 mps 752 mmHg 85%

4 December, Friday

Time Temperature Precipitation Wind Pressure Humidity
00:00 -1°C° 0 mm 5 mps 751 mmHg 86%
01:00 -1°C° 0 mm 5 mps 751 mmHg 86%
02:00 -1°C° 0 mm 4 mps 751 mmHg 87%
03:00 0°C° 0 mm 5 mps 750 mmHg 88%
04:00 0°C° 0 mm 5 mps 750 mmHg 89%
05:00 0°C° 0 mm 5 mps 750 mmHg 90%
06:00 +1°C° 0 mm 5 mps 750 mmHg 90%
07:00 +1°C° 0 mm 5 mps 750 mmHg 90%
08:00 +1°C° 0 mm 5 mps 750 mmHg 90%
09:00 +2°C° 0 mm 6 mps 750 mmHg 87%
10:00 +2°C° 0 mm 6 mps 750 mmHg 83%
11:00 +2°C° 0 mm 6 mps 750 mmHg 80%
12:00 +3°C° 0 mm 6 mps 750 mmHg 78%
13:00 +3°C° 0 mm 6 mps 749 mmHg 75%
14:00 +3°C° 0 mm 6 mps 749 mmHg 73%
15:00 +2°C° 0 mm 6 mps 749 mmHg 76%
16:00 +2°C° 0 mm 6 mps 749 mmHg 78%
17:00 +1°C° 0 mm 6 mps 749 mmHg 80%
18:00 +1°C° 0 mm 6 mps 749 mmHg 81%
19:00 0°C° 0 mm 7 mps 749 mmHg 83%
20:00 0°C° 0 mm 7 mps 749 mmHg 84%
21:00 +2°C° 0 mm 7 mps 749 mmHg 84%
22:00 +2°C° 0 mm 7 mps 749 mmHg 83%
23:00 +2°C° 0 mm 6 mps 750 mmHg 83%

5 December, Saturday

Time Temperature Precipitation Wind Pressure Humidity
00:00 +2°C° 0 mm 6 mps 750 mmHg 83%
01:00 +2°C° 0 mm 6 mps 750 mmHg 84%
02:00 +3°C° 0 mm 6 mps 750 mmHg 84%
03:00 +3°C° 0 mm 6 mps 750 mmHg 84%
04:00 +3°C° 0 mm 6 mps 750 mmHg 84%
05:00 +3°C° 0 mm 6 mps 750 mmHg 84%
06:00 +3°C° 0 mm 6 mps 750 mmHg 85%
07:00 +3°C° 0 mm 6 mps 750 mmHg 85%
08:00 +3°C° 0 mm 6 mps 750 mmHg 86%
09:00 +3°C° 0 mm 6 mps 751 mmHg 86%
10:00 +3°C° 0 mm 6 mps 751 mmHg 86%
11:00 +4°C° 0 mm 6 mps 751 mmHg 86%
12:00 +4°C° 0 mm 6 mps 751 mmHg 85%
13:00 +4°C° 0 mm 6 mps 751 mmHg 84%
14:00 +4°C° 0 mm 6 mps 751 mmHg 84%
15:00 +4°C° 0 mm 6 mps 751 mmHg 84%
16:00 +4°C° 0 mm 6 mps 751 mmHg 85%
17:00 +4°C° 0 mm 6 mps 751 mmHg 85%
18:00 +4°C° 0 mm 6 mps 751 mmHg 85%
19:00 +4°C° 0 mm 7 mps 751 mmHg 85%
20:00 +3°C° 0 mm 7 mps 752 mmHg 84%
21:00 +3°C° 0 mm 7 mps 752 mmHg 84%
22:00 +3°C° 0 mm 6 mps 752 mmHg 83%
23:00 +3°C° 0 mm 6 mps 752 mmHg 82%

6 December, Sunday

Time Temperature Precipitation Wind Pressure Humidity
00:00 +3°C° 0 mm 6 mps 752 mmHg 81%
01:00 +3°C° 0 mm 6 mps 752 mmHg 79%
02:00 +3°C° 0 mm 7 mps 752 mmHg 78%
03:00 +3°C° 0 mm 7 mps 751 mmHg 78%
04:00 +2°C° 0 mm 7 mps 751 mmHg 78%
05:00 +2°C° 0 mm 7 mps 751 mmHg 78%
06:00 +2°C° 0 mm 7 mps 751 mmHg 77%
07:00 0°C° 0 mm 7 mps 751 mmHg 77%
08:00 0°C° 0 mm 7 mps 751 mmHg 76%
09:00 +2°C° 0 mm 7 mps 751 mmHg 74%
10:00 +2°C° 0 mm 7 mps 751 mmHg 72%
11:00 +1°C° 0 mm 8 mps 751 mmHg 71%
12:00 +2°C° 0 mm 7 mps 751 mmHg 70%
13:00 +2°C° 0 mm 7 mps 751 mmHg 69%
14:00 +2°C° 0 mm 7 mps 751 mmHg 69%
15:00 +2°C° 0 mm 7 mps 751 mmHg 69%
16:00 +2°C° 0 mm 7 mps 751 mmHg 70%
17:00 +1°C° 0 mm 6 mps 752 mmHg 71%
18:00 +1°C° 0 mm 6 mps 752 mmHg 71%
19:00 +1°C° 0 mm 6 mps 752 mmHg 72%
20:00 -1°C° 0 mm 6 mps 752 mmHg 73%
21:00 -1°C° 0 mm 6 mps 753 mmHg 73%
22:00 -1°C° 0 mm 7 mps 753 mmHg 74%
23:00 -1°C° 0 mm 7 mps 753 mmHg 74%
Show more